Regional Weather Roundup
Issued by NWS San Diego, CA

Home | Current Version | Previous Version | Text Only | Print | Product List | Glossary On
Versions: 1 2 3 4 5 6 7 8 9 10 11 12 13 14 15 16 17 18 19 20 21 22 23 24 25 26 27
000
ASUS46 KSGX 231711
RWRSGX

SAN DIEGO HOURLY WEATHER ROUNDUP
NATIONAL WEATHER SERVICE SAN DIEGO CA
900 AM PST THU FEB 23 2017

NOTE: "FAIR" INDICATES FEW OR NO CLOUDS BELOW 12,000 FEET WITH NO
SIGNIFICANT WEATHER AND/OR OBSTRUCTIONS TO VISIBILITY.

CAZ042-043-060-061-PZZ750-775-231800-

GREATER SAN DIEGO AREA

CITY           SKY/WX    TMP DP  RH WIND       PRES   REMARKS
SAN DIEGO AP   PTSUNNY   58  38  47 NW13      30.10S
NATIONAL CITY    N/A     57  43  60 NW6       30.09S
CHULA VISTA      N/A     57  47  68 E1        30.01S
IMPERIAL BEACH MOSUNNY   55  42  61 NW14      30.10R
BROWN FIELD    PTSUNNY   56  42  59 CALM      30.08S
MIRAMAR MCAS   MOSUNNY   58  40  51 N6        30.08S
MONTGOMERY FLD MOSUNNY   55  37  50 N5        30.08S

$$

NORTH SAN DIEGO COUNTY

CITY           SKY/WX    TMP DP  RH WIND       PRES   REMARKS
CAMP PENDLETON MOSUNNY   50  45  83 CALM      30.09S
OCEANSIDE AP   SUNNY     53  45  74 E3        30.09R
OCEANSIDE HBR    N/A     54  41  62 NW3       30.11F
VISTA            N/A     52  43  73 CALM      30.08R
CARLSBAD       SUNNY     55  34  45 VRB3      30.08R
DEL MAR          N/A     54  43  66 CALM      30.11S
LA JOLLA SCRIP   N/A     55  42  60 W2        30.09R
FALLBROOK        N/A     50  50 100 CALM      30.06S
ESCONDIDO        N/A     55  39  55 NW6       30.10S
SAN MARCOS       N/A     53  38  57 N3        30.10S
POWAY            N/A     50  42  74 CALM      30.11S

$$

EAST SAN DIEGO COUNTY

CITY           SKY/WX    TMP DP  RH WIND       PRES   REMARKS
RAMONA         SUNNY     50  36  58 CALM      30.07R
SANTEE LAKES     N/A     52  46  79 CALM      30.09S
LA MESA          N/A     52  40  63 CALM      30.03R
JAMUL            N/A     51  40  64 CALM      30.10S
DESCANSO N       N/A     40  32  71 W5        30.03R
CAMPO            N/A     45  31  58 W13       30.00S

$$

ORANGE COUNTY AND THE LOS ANGELES BASIN

CITY           SKY/WX    TMP DP  RH WIND       PRES   REMARKS
JOHN WAYNE AP  MOSUNNY   54  31  41 VRB3      30.10R
LAGUNA BEACH     N/A     51  35  54 N2        30.04
LAKE FOREST FR   N/A     49  33  53 W3        29.99S
HUNTINGTON BCH   N/A     55  32  41 NW10      30.11S
LOS ALAMITOS   SUNNY     55  31  39 NW13      30.09S
FULLERTON      SUNNY     55  29  36 W5        30.08S
LONG BEACH     SUNNY     55  26  32 NW14      30.10R
L.A. AP        MOSUNNY   54  28  36 N15G22    30.10S
L.A. DOWNTOWN  SUNNY     55  27  34 NW8       30.09S

$$

THE INLAND EMPIRE

CITY           SKY/WX    TMP DP  RH WIND       PRES   REMARKS
CORONA         SUNNY     51  36  56 SE8       30.08F
CHINO          MOSUNNY   51  38  60 SE6       30.09S
ONTARIO        MOSUNNY   49  33  54 CALM      30.07S
RIVERSIDE AP   SUNNY     49  37  63 CALM      30.07S
MORENO VALLEY    N/A     49  38  65 W1        28.15F
MARCH ARB      SUNNY     47  41  81 CALM      30.05S
HORSETHIEF CYN   N/A     49  26  40 CALM      30.11S
PERRIS           N/A     44  43  99 SW1       30.11S
HEMET EAST       N/A     45  31  57 SW3       30.13R
FRENCH VALLEY  FAIR      45  43  93 CALM      30.07S
TEMECULA         N/A     46  46  98 CALM      30.12S

$$

SAN BERNARDINO AND RIVERSIDE COUNTY MOUNTAINS

CITY           SKY/WX    TMP DP  RH WIND       PRES   REMARKS
BIG BEAR AP    SUNNY     30  -8  19 SW12G18   29.94S WCI  21
ANGELUS OAKS     N/A     30  10  43 CALM      30.03R
PINE COVE        N/A     28  22  78 CALM      30.05S

$$

SOUTHERN DESERT INCLUDING THE COACHELLA VALLEY

CITY           SKY/WX    TMP DP  RH WIND       PRES   REMARKS
PALM SPRINGS   SUNNY     57  37  47 CALM      30.01S
PALM DESERT      N/A     60  35  39 CALM        N/A
THERMAL        SUNNY     60  29  30 N17G23    29.99R
BLYTHE         SUNNY     57  17  21 NW16G22   30.01R
EL CENTRO NAS  MOSUNNY   61  28  28 NW15      30.03S
YUMA AZ        SUNNY     59  23  25 N9        30.01S
MEXICALI       SUNNY     57  32  38 NW8       30.02S

$$

UPPER DESERT

CITY           SKY/WX    TMP DP  RH WIND       PRES   REMARKS
VICTORVILLE AP SUNNY     39  23  52 W17G25    30.05S WCI  30
HESPERIA         N/A     39  26  59 NW2       30.23S
PALMDALE       SUNNY     41  25  53 NW18      30.08F
LANCASTER      SUNNY     41  25  53 W20       30.10R
EDWARDS AFB    MOSUNNY   40  22  48 W25G39    30.04F WCI  30
DAGGETT        SUNNY     44  21  40 W28G36    30.04S
29 PALMS N     SUNNY     46  19  34 NW26G41   30.08S
NEEDLES        SUNNY     55  20  25 VRB5      29.98R

$$

REGIONAL REPORTS

CITY           SKY/WX    TMP DP  RH WIND       PRES   REMARKS
SANTA BARBARA  SUNNY     51  28  41 N3G23     30.14R
SANDBERG       CLOUDY    29  24  82 N14G33    30.04S WCI  18
LAS VEGAS NV   MOSUNNY   49   7  18 NW13      29.95R
PHOENIX AZ     SUNNY     57  26  30 SW8       29.93S
TIJUANA        PTSUNNY   54  34  47 N7        30.11S
ENSENADA NW      N/A     58  32  38 N3        30.08R

$$

OFFSHORE ISLANDS

CITY           SKY/WX    TMP DP  RH WIND       PRES   REMARKS
CATALINA ARPT  SUNNY     47  35  63 N12       30.08R
SAN CLEMENTE I MOSUNNY   54  37  52 NW22      30.12S
SAN NICOLAS IS MOSUNNY   50  34  54 NW36G44   30.13R

$$

MARINE AND OFFSHORE BUOY REPORTS

STATION/POSITION SKY/WX   TEMP    WIND        PRES    VSBY  SWELL
                          AIR SEA DIR/SP/G                  HT/PER/DIR
                          (F)     (DEG/KT/KT) (MB)    (MI)  (FT/S/D)
TANNER BANKS               54 59  340/ 23/ 29 1020.8R         7/310/12
S CLEMENTE BASIN           54 59  310/ 21/ 27 1019.2R         8/280/12
SAN NICOLAS IS.               55                N/A           5/270/13
SO. S. ROSA ISLA           51 56  330/ 21/ 25 1021.6R         7/290/11
W. S. BARBARA CH           50 55  350/ 17/ 21 1022.2R         7/280/12
M. S. BARBARA CH                  290/ 23/ 29 1021.0R
S. MONICA BASIN            53 58  320/ 17/ 23 1019.5R         5/280/13
S PEDRO CHANNEL               58                N/A           5/280/11
CMP PENDLETON NS              59                N/A           3/250/12
OCEANSIDE OFFSHR              59                N/A           3/260/12
TORREY PINES OTR              59                N/A           3/270/13
POINT LOMA SOUTH              60                N/A           7/270/13

$$





USA.gov is the U.S. government's official web portal to all federal, state and local government web resources and services.